Total_Precipitation_Accumulation
0.07 0.08 0.07 0.08 0.07 0.05 0.06 0.06 0.05 0.05 0.04 0.05 0.04 0.03 0.03 0.04 0.04 0.04 0.03 0.04 0.02 0.02 0.02 0.01 0.01 0.01 0.01 0.02 0.01 0.00 0.00 0.01 0.00 0.00 0.00 0.00 0.00 0.00 0.00 0.00 0.00 0.00 0.00 0.00 0.00 0.00 0.00 0.00 0.00 0.00 0.00 0.00 0.00 0.00 0.00 0.00 0.00 0.00 0.00 0.00 0.00 0.00 0.00 0.00 0.00 0.00 0.00 0.00 0.00 0.00 0.00 0.00 0.00 0.00 0.00 0.00 0.00 0.00 0.01 0.03 0.03 0.04 0.10 0.12 0.11 0.16 0.05 0.22
0.07 0.06 0.09 0.06 0.06 0.07 0.05 0.06 0.06 0.06 0.04 0.03 0.04 0.04 0.04 0.04 0.04 0.02 0.03 0.03 0.04 0.03 0.02 0.03 0.01 0.00 0.01 0.01 0.00 0.00 0.00 0.00 0.00 0.00 0.00 0.00 0.00 0.00 0.00 0.00 0.00 0.00 0.00 0.00 0.00 0.00 0.00 0.00 0.00 0.00 0.00 0.00 0.00 0.00 0.00 0.00 0.00 0.00 0.00 0.00 0.00 0.00 0.00 0.00 0.00 0.00 0.00 0.00 0.00 0.00 0.00 0.00 0.00 0.00 0.00 0.05 0.01 0.00 0.01 0.01 0.03 0.17 0.14 0.17 0.22 0.15 0.20 0.18
0.06 0.07 0.06 0.05 0.05 0.08 0.06 0.04 0.05 0.04 0.03 0.02 0.02 0.04 0.03 0.03 0.04 0.03 0.03 0.03 0.03 0.03 0.03 0.02 0.03 0.01 0.01 0.01 0.00 0.00 0.00 0.00 0.00 0.00 0.00 0.00 0.00 0.00 0.00 0.00 0.00 0.00 0.00 0.00 0.00 0.00 0.00 0.00 0.00 0.00 0.00 0.00 0.00 0.00 0.00 0.00 0.00 0.00 0.00 0.00 0.00 0.00 0.00 0.00 0.00 0.00 0.00 0.00 0.00 0.00 0.00 0.00 0.00 0.00 0.00 0.01 0.04 0.00 0.02 0.06 0.07 0.19 0.43 0.20 0.24 0.22 0.24 0.31
0.07 0.07 0.06 0.05 0.04 0.04 0.05 0.05 0.04 0.04 0.04 0.05 0.03 0.03 0.04 0.03 0.03 0.04 0.03 0.03 0.02 0.03 0.02 0.02 0.01 0.01 0.01 0.00 0.00 0.00 0.00 0.00 0.00 0.00 0.00 0.00 0.00 0.00 0.00 0.00 0.00 0.00 0.00 0.00 0.00 0.00 0.00 0.00 0.00 0.00 0.00 0.00 0.00 0.00 0.00 0.00 0.00 0.00 0.00 0.00 0.00 0.00 0.00 0.00 0.00 0.00 0.00 0.00 0.00 0.00 0.00 0.00 0.00 0.00 0.00 0.00 0.04 0.07 0.17 0.01 0.03 0.21 0.36 0.30 0.14 0.14 0.25 0.40
0.05 0.06 0.05 0.05 0.05 0.06 0.06 0.04 0.04 0.05 0.05 0.05 0.05 0.05 0.06 0.03 0.04 0.04 0.04 0.03 0.03 0.02 0.02 0.01 0.01 0.01 0.00 0.02 0.00 0.00 0.00 0.00 0.00 0.00 0.00 0.00 0.00 0.00 0.00 0.00 0.00 0.00 0.00 0.00 0.00 0.00 0.00 0.00 0.00 0.00 0.00 0.00 0.00 0.00 0.00 0.00 0.00 0.00 0.00 0.00 0.00 0.00 0.00 0.00 0.00 0.00 0.00 0.00 0.00 0.00 0.00 0.00 0.00 0.00 0.00 0.00 0.00 0.03 0.03 0.01 0.01 0.06 0.13 0.16 0.19 0.23 0.24 0.38
0.05 0.06 0.05 0.06 0.05 0.05 0.05 0.05 0.04 0.05 0.06 0.05 0.07 0.06 0.05 0.04 0.04 0.03 0.04 0.03 0.03 0.02 0.01 0.01 0.01 0.01 0.00 0.00 0.00 0.00 0.00 0.00 0.00 0.00 0.00 0.00 0.00 0.00 0.00 0.00 0.00 0.00 0.00 0.00 0.00 0.00 0.00 0.00 0.00 0.00 0.00 0.00 0.00 0.00 0.00 0.00 0.00 0.00 0.00 0.00 0.00 0.00 0.00 0.00 0.00 0.00 0.00 0.00 0.00 0.00 0.00 0.00 0.00 0.00 0.00 0.00 0.01 0.01 0.00 0.02 0.05 0.11 0.11 0.15 0.17 0.35 0.32 0.52
0.08 0.07 0.06 0.05 0.06 0.08 0.05 0.08 0.06 0.05 0.05 0.06 0.05 0.05 0.04 0.05 0.03 0.02 0.02 0.04 0.02 0.04 0.01 0.01 0.00 0.00 0.00 0.00 0.00 0.00 0.00 0.00 0.00 0.00 0.00 0.00 0.00 0.00 0.00 0.00 0.00 0.00 0.00 0.00 0.00 0.00 0.00 0.00 0.00 0.00 0.00 0.00 0.00 0.00 0.00 0.00 0.00 0.00 0.00 0.00 0.00 0.00 0.00 0.00 0.00 0.00 0.00 0.00 0.00 0.00 0.00 0.00 0.00 0.00 0.00 0.00 0.00 0.00 0.01 0.02 0.03 0.09 0.13 0.14 0.14 0.26 0.43 0.84
0.06 0.07 0.05 0.05 0.04 0.03 0.06 0.06 0.06 0.04 0.05 0.06 0.05 0.04 0.05 0.05 0.05 0.03 0.03 0.03 0.03 0.01 0.02 0.01 0.00 0.00 0.00 0.00 0.00 0.00 0.00 0.00 0.00 0.00 0.00 0.00 0.00 0.00 0.00 0.00 0.00 0.00 0.00 0.00 0.00 0.00 0.00 0.00 0.00 0.00 0.00 0.00 0.00 0.00 0.00 0.00 0.00 0.00 0.00 0.00 0.00 0.00 0.00 0.00 0.00 0.00 0.00 0.00 0.00 0.00 0.00 0.00 0.00 0.00 0.00 0.00 0.00 0.01 0.00 0.01 0.03 0.07 0.14 0.20 0.16 0.20 0.48 0.78
0.06 0.05 0.08 0.07 0.06 0.05 0.06 0.05 0.04 0.04 0.05 0.06 0.06 0.06 0.07 0.06 0.08 0.05 0.03 0.05 0.02 0.02 0.01 0.01 0.00 0.00 0.00 0.01 0.01 0.01 0.00 0.00 0.00 0.00 0.00 0.00 0.00 0.00 0.00 0.00 0.00 0.00 0.00 0.00 0.00 0.00 0.00 0.00 0.00 0.00 0.00 0.00 0.00 0.00 0.00 0.00 0.00 0.00 0.00 0.00 0.00 0.00 0.00 0.00 0.00 0.00 0.00 0.00 0.00 0.00 0.00 0.00 0.00 0.00 0.00 0.02 0.02 0.01 0.01 0.01 0.03 0.07 0.19 0.21 0.25 0.25 0.34 1.05
0.05 0.06 0.05 0.08 0.06 0.07 0.06 0.05 0.04 0.04 0.05 0.04 0.07 0.06 0.07 0.05 0.04 0.07 0.04 0.02 0.02 0.02 0.02 0.01 0.01 0.03 0.01 0.02 0.02 0.02 0.00 0.00 0.00 0.00 0.00 0.00 0.00 0.00 0.00 0.00 0.00 0.00 0.00 0.00 0.00 0.00 0.00 0.00 0.00 0.00 0.00 0.00 0.00 0.00 0.00 0.00 0.00 0.00 0.00 0.00 0.00 0.00 0.00 0.00 0.00 0.00 0.00 0.00 0.00 0.00 0.00 0.00 0.00 0.00 0.01 0.03 0.02 0.03 0.02 0.03 0.09 0.08 0.16 0.22 0.26 0.39 0.65 0.59
0.10 0.08 0.06 0.08 0.08 0.07 0.05 0.05 0.10 0.05 0.08 0.04 0.05 0.05 0.05 0.05 0.06 0.04 0.05 0.03 0.03 0.01 0.02 0.02 0.03 0.02 0.05 0.04 0.02 0.01 0.00 0.00 0.00 0.00 0.00 0.00 0.00 0.00 0.00 0.00 0.00 0.00 0.00 0.00 0.00 0.00 0.00 0.00 0.00 0.00 0.00 0.00 0.00 0.00 0.00 0.00 0.00 0.00 0.00 0.00 0.00 0.00 0.00 0.00 0.00 0.00 0.00 0.00 0.00 0.00 0.00 0.00 0.00 0.00 0.00 0.03 0.07 0.02 0.06 0.06 0.10 0.14 0.13 0.21 0.37 0.38 0.50 1.18
0.04 0.06 0.16 0.06 0.08 0.07 0.05 0.07 0.08 0.10 0.04 0.05 0.04 0.04 0.05 0.04 0.05 0.04 0.04 0.09 0.03 0.07 0.02 0.01 0.02 0.08 0.01 0.07 0.06 0.00 0.00 0.00 0.00 0.00 0.00 0.00 0.00 0.00 0.00 0.00 0.00 0.00 0.00 0.00 0.00 0.00 0.00 0.00 0.00 0.00 0.00 0.00 0.00 0.00 0.00 0.00 0.00 0.00 0.00 0.00 0.00 0.00 0.00 0.00 0.00 0.00 0.00 0.00 0.00 0.00 0.00 0.00 0.00 0.01 0.00 0.03 0.03 0.06 0.06 0.06 0.10 0.15 0.22 0.23 0.43 0.48 0.63 1.12
0.11 0.07 0.10 0.07 0.06 0.08 0.05 0.07 0.10 0.05 0.05 0.05 0.04 0.04 0.05 0.05 0.06 0.09 0.05 0.04 0.03 0.03 0.03 0.02 0.01 0.07 0.13 0.10 0.00 0.00 0.00 0.00 0.00 0.00 0.00 0.00 0.00 0.00 0.00 0.00 0.00 0.00 0.00 0.00 0.00 0.00 0.00 0.00 0.00 0.00 0.00 0.00 0.00 0.00 0.00 0.00 0.00 0.00 0.00 0.00 0.00 0.00 0.00 0.00 0.00 0.00 0.00 0.00 0.00 0.00 0.00 0.00 0.00 0.00 0.02 0.07 0.02 0.06 0.10 0.16 0.17 0.18 0.22 0.21 0.23 0.62 0.80 1.18
0.09 0.08 0.08 0.12 0.07 0.06 0.09 0.09 0.04 0.09 0.05 0.04 0.05 0.04 0.04 0.05 0.06 0.06 0.12 0.03 0.06 0.05 0.06 0.03 0.08 0.04 0.17 0.03 0.00 0.00 0.00 0.00 0.00 0.00 0.00 0.00 0.00 0.00 0.00 0.00 0.00 0.00 0.00 0.00 0.00 0.00 0.00 0.00 0.00 0.00 0.00 0.00 0.00 0.00 0.00 0.00 0.00 0.00 0.00 0.00 0.00 0.00 0.00 0.00 0.00 0.00 0.00 0.00 0.00 0.00 0.00 0.00 0.00 0.01 0.09 0.44 0.16 0.08 0.05 0.12 0.17 0.13 0.26 0.21 0.16 0.30 0.83 1.53
0.09 0.07 0.09 0.07 0.06 0.19 0.10 0.20 0.08 0.05 0.07 0.07 0.05 0.04 0.04 0.07 0.06 0.07 0.10 0.10 0.09 0.05 0.05 0.06 0.04 0.08 0.17 0.00 0.00 0.00 0.00 0.00 0.00 0.00 0.00 0.00 0.00 0.00 0.00 0.00 0.00 0.00 0.00 0.00 0.00 0.00 0.00 0.00 0.00 0.00 0.00 0.00 0.00 0.00 0.00 0.00 0.00 0.00 0.00 0.00 0.00 0.00 0.00 0.00 0.00 0.00 0.00 0.00 0.00 0.00 0.00 0.00 0.00 0.04 0.02 0.09 0.16 0.27 0.20 0.11 0.21 0.14 0.16 0.21 0.33 0.96 1.17 1.37
0.10 0.11 0.10 0.07 0.05 0.05 0.17 0.11 0.04 0.09 0.04 0.06 0.05 0.03 0.05 0.05 0.07 0.07 0.08 0.05 0.06 0.05 0.05 0.05 0.02 0.02 0.01 0.03 0.00 0.00 0.00 0.00 0.00 0.00 0.00 0.00 0.00 0.00 0.00 0.00 0.00 0.00 0.00 0.00 0.00 0.00 0.00 0.00 0.00 0.00 0.00 0.00 0.00 0.00 0.00 0.00 0.00 0.00 0.00 0.00 0.00 0.00 0.00 0.00 0.00 0.00 0.00 0.00 0.00 0.00 0.00 0.00 0.06 0.08 0.09 0.38 0.31 0.26 0.17 0.25 0.25 0.22 0.24 0.35 0.50 0.82 0.93 0.62
0.12 0.08 0.08 0.09 0.08 0.05 0.09 0.06 0.18 0.06 0.05 0.03 0.05 0.05 0.09 0.06 0.06 0.07 0.10 0.05 0.09 0.06 0.11 0.07 0.02 0.16 0.16 0.00 0.00 0.00 0.00 0.00 0.00 0.00 0.00 0.00 0.00 0.00 0.00 0.00 0.00 0.00 0.00 0.00 0.00 0.00 0.00 0.00 0.00 0.00 0.00 0.00 0.00 0.00 0.00 0.00 0.00 0.00 0.00 0.00 0.00 0.00 0.00 0.00 0.00 0.00 0.00 0.00 0.00 0.00 0.00 0.00 0.03 0.10 0.10 0.28 1.39 1.23 0.49 0.33 0.42 0.36 0.28 0.93 0.82 0.63 0.91 0.69
0.11 0.11 0.16 0.13 0.10 0.09 0.12 0.11 0.11 0.06 0.14 0.06 0.06 0.06 0.09 0.06 0.07 0.05 0.07 0.10 0.09 0.07 0.05 0.02 0.05 0.15 0.02 0.00 0.00 0.00 0.00 0.00 0.00 0.00 0.00 0.00 0.00 0.00 0.00 0.00 0.00 0.00 0.00 0.00 0.00 0.00 0.00 0.00 0.00 0.00 0.00 0.00 0.00 0.00 0.00 0.00 0.00 0.00 0.00 0.00 0.00 0.00 0.00 0.00 0.00 0.00 0.00 0.00 0.00 0.00 0.00 0.01 0.03 0.10 0.11 0.14 0.44 0.32 0.10 0.26 1.00 0.83 1.26 0.94 1.27 0.62 0.60 1.02
0.14 0.19 0.14 0.16 0.07 0.13 0.10 0.10 0.14 0.10 0.08 0.10 0.10 0.10 0.09 0.20 0.12 0.07 0.11 0.20 0.18 0.38 0.18 0.13 0.12 0.08 0.01 0.00 0.00 0.00 0.00 0.00 0.00 0.00 0.00 0.00 0.00 0.00 0.00 0.00 0.00 0.00 0.00 0.00 0.00 0.00 0.00 0.00 0.00 0.00 0.00 0.00 0.00 0.00 0.00 0.00 0.00 0.00 0.00 0.00 0.00 0.00 0.00 0.00 0.00 0.00 0.00 0.00 0.00 0.00 0.00 0.01 0.01 0.03 0.07 0.18 0.08 0.17 0.27 0.30 0.25 0.53 1.38 0.86 0.41 0.52 0.47 0.77
0.15 0.14 0.18 0.12 0.13 0.06 0.11 0.11 0.08 0.07 0.12 0.10 0.09 0.11 0.16 0.22 0.20 0.17 0.11 0.32 0.20 0.04 0.01 0.00 0.00 0.00 0.00 0.00 0.00 0.00 0.00 0.00 0.00 0.00 0.00 0.00 0.00 0.00 0.00 0.00 0.00 0.00 0.00 0.00 0.00 0.00 0.00 0.00 0.00 0.00 0.00 0.00 0.00 0.00 0.00 0.00 0.00 0.00 0.00 0.00 0.00 0.00 0.00 0.00 0.00 0.00 0.00 0.00 0.00 0.00 0.00 0.00 0.00 0.00 0.05 0.03 0.17 0.11 0.19 0.53 0.53 0.61 0.67 0.57 0.70 0.95 1.02 1.37
0.14 0.16 0.21 0.11 0.13 0.13 0.10 0.07 0.16 0.11 0.10 0.24 0.15 0.20 0.23 0.10 0.07 0.11 0.14 0.10 0.08 0.03 0.01 0.07 0.01 0.00 0.00 0.00 0.00 0.00 0.00 0.00 0.00 0.00 0.00 0.00 0.00 0.00 0.00 0.00 0.00 0.00 0.00 0.00 0.00 0.00 0.00 0.00 0.00 0.00 0.00 0.00 0.00 0.00 0.00 0.00 0.00 0.00 0.00 0.00 0.00 0.00 0.00 0.00 0.00 0.00 0.00 0.00 0.00 0.00 0.00 0.00 0.00 0.01 0.04 0.02 0.18 0.28 0.75 0.61 0.59 0.54 0.48 0.39 0.50 1.59 2.53 2.04
0.22 0.19 0.15 0.27 0.19 0.09 0.13 0.11 0.08 0.33 0.19 0.23 0.30 0.18 0.08 0.09 0.16 0.13 0.09 0.11 0.04 0.02 0.01 0.01 0.02 0.01 0.00 0.00 0.00 0.00 0.00 0.00 0.00 0.00 0.00 0.00 0.00 0.00 0.00 0.00 0.00 0.00 0.00 0.00 0.00 0.00 0.00 0.00 0.00 0.00 0.00 0.00 0.00 0.00 0.00 0.00 0.00 0.00 0.00 0.00 0.00 0.00 0.00 0.00 0.00 0.00 0.00 0.00 0.00 0.00 0.00 0.00 0.01 0.01 0.10 0.05 0.07 0.04 0.09 0.14 0.15 0.24 0.62 0.82 0.69 0.97 1.52 1.36
0.18 0.26 0.36 0.18 0.18 0.14 0.10 0.51 0.19 0.22 0.39 0.24 0.20 0.19 0.10 0.08 0.10 0.09 0.17 0.20 0.21 0.05 0.03 0.01 0.01 0.00 0.00 0.00 0.00 0.00 0.00 0.00 0.00 0.00 0.00 0.00 0.00 0.00 0.00 0.00 0.00 0.00 0.00 0.00 0.00 0.00 0.00 0.00 0.00 0.00 0.00 0.00 0.00 0.00 0.00 0.00 0.00 0.00 0.00 0.01 0.00 0.00 0.00 0.03 0.00 0.00 0.00 0.00 0.00 0.00 0.00 0.00 0.00 0.03 0.04 0.12 0.11 0.10 0.12 0.16 0.33 0.14 0.18 0.51 0.99 0.79 0.80 0.59
0.36 0.25 0.26 0.18 0.15 0.29 0.19 0.22 0.18 0.21 0.37 0.13 0.15 0.26 0.13 0.13 0.14 0.10 0.30 0.31 0.08 0.03 0.02 0.01 0.00 0.00 0.00 0.00 0.00 0.00 0.00 0.00 0.00 0.00 0.00 0.00 0.00 0.00 0.00 0.00 0.00 0.00 0.00 0.00 0.00 0.00 0.01 0.01 0.00 0.00 0.00 0.00 0.00 0.00 0.00 0.00 0.00 0.00 0.00 0.00 0.00 0.00 0.00 0.00 0.07 0.00 0.00 0.00 0.00 0.00 0.01 0.01 0.01 0.04 0.16 0.21 0.31 0.23 0.13 0.22 0.53 0.85 1.21 0.93 0.92 1.08 1.05 1.04
0.24 0.27 0.26 0.27 0.33 0.19 0.34 0.33 0.14 0.19 0.10 0.45 0.28 0.39 0.41 0.27 0.23 0.22 0.21 0.17 0.13 0.03 0.00 0.01 0.01 0.01 0.00 0.00 0.00 0.00 0.00 0.00 0.00 0.00 0.00 0.00 0.00 0.00 0.00 0.00 0.00 0.00 0.00 0.00 0.00 0.00 0.01 0.00 0.00 0.00 0.00 0.00 0.00 0.00 0.00 0.00 0.00 0.00 0.00 0.00 0.00 0.00 0.00 0.00 0.00 0.00 0.00 0.02 0.00 0.00 0.04 0.06 0.01 0.02 0.13 0.11 0.26 0.31 0.56 0.73 0.26 0.31 0.54 0.42 0.58 0.97 0.76 0.76
0.20 0.26 0.30 0.37 0.44 0.33 0.37 0.33 0.33 0.20 0.23 0.56 0.43 0.26 0.35 0.40 0.40 0.44 0.29 0.39 0.21 0.01 0.01 0.03 0.00 0.01 0.00 0.00 0.00 0.00 0.00 0.00 0.00 0.00 0.00 0.00 0.00 0.00 0.00 0.00 0.00 0.00 0.00 0.00 0.00 0.00 0.01 0.00 0.00 0.00 0.00 0.00 0.00 0.00 0.00 0.00 0.00 0.00 0.02 0.00 0.00 0.00 0.00 0.00 0.00 0.00 0.01 0.05 0.06 0.00 0.02 0.05 0.01 0.04 0.10 0.17 0.22 0.34 0.50 0.37 0.35 0.44 0.68 0.57 1.02 0.58 0.55 0.69
0.51 0.27 0.26 0.37 0.27 0.61 0.49 0.34 0.51 0.22 0.30 0.41 0.64 0.52 0.49 0.89 0.46 0.35 0.45 0.47 0.23 0.08 0.04 0.02 0.00 0.01 0.00 0.00 0.00 0.00 0.02 0.02 0.00 0.00 0.00 0.00 0.00 0.00 0.00 0.00 0.00 0.00 0.00 0.00 0.00 0.00 0.00 0.00 0.00 0.00 0.00 0.00 0.00 0.00 0.00 0.00 0.01 0.02 0.02 0.00 0.00 0.00 0.00 0.00 0.00 0.00 0.03 0.00 0.04 0.00 0.00 0.10 0.07 0.08 0.02 0.05 0.25 0.29 0.31 0.31 0.21 0.33 0.42 0.69 0.64 0.85 0.71 0.54
0.22 0.29 0.19 0.34 0.37 0.48 0.69 0.44 0.28 0.44 0.46 0.70 0.45 0.51 0.45 0.26 0.49 0.61 0.19 0.42 0.09 0.11 0.10 0.09 0.02 0.01 0.00 0.00 0.00 0.00 0.01 0.00 0.01 0.00 0.00 0.00 0.00 0.00 0.00 0.00 0.00 0.00 0.00 0.00 0.02 0.01 0.00 0.00 0.00 0.00 0.00 0.00 0.00 0.00 0.00 0.00 0.00 0.04 0.00 0.00 0.00 0.00 0.03 0.00 0.00 0.02 0.08 0.01 0.09 0.01 0.00 0.01 0.06 0.07 0.02 0.04 0.07 0.14 0.08 0.16 0.21 0.21 0.48 0.70 0.77 0.98 0.69 0.97
0.41 0.26 0.25 0.31 0.32 0.44 0.43 0.51 0.26 0.32 1.02 0.67 0.44 0.29 0.29 0.48 0.37 0.39 0.69 0.31 0.25 0.10 0.11 0.25 0.00 0.02 0.03 0.00 0.00 0.00 0.00 0.00 0.01 0.01 0.00 0.00 0.00 0.00 0.00 0.00 0.00 0.00 0.00 0.00 0.02 0.01 0.00 0.00 0.00 0.00 0.00 0.00 0.00 0.00 0.00 0.00 0.01 0.00 0.00 0.00 0.00 0.00 0.00 0.00 0.01 0.00 0.06 0.01 0.04 0.04 0.06 0.03 0.04 0.08 0.02 0.06 0.05 0.06 0.14 0.12 0.11 0.30 0.29 0.52 0.67 0.69 1.08 1.33
0.21 0.15 0.23 0.16 0.30 0.30 0.50 0.51 0.26 0.58 0.44 0.67 0.49 0.37 0.75 0.43 0.75 0.29 0.57 0.12 0.06 0.39 0.14 0.08 0.02 0.02 0.02 0.00 0.00 0.00 0.00 0.00 0.00 0.00 0.00 0.00 0.00 0.00 0.00 0.00 0.00 0.00 0.00 0.00 0.00 0.00 0.00 0.00 0.00 0.00 0.00 0.00 0.00 0.00 0.00 0.00 0.00 0.00 0.00 0.00 0.01 0.00 0.01 0.00 0.00 0.04 0.04 0.02 0.02 0.02 0.04 0.00 0.09 0.15 0.08 0.17 0.06 0.08 0.03 0.15 0.12 0.27 0.36 0.31 0.35 0.50 0.76 1.05
0.38 0.34 0.19 0.21 0.54 0.39 0.33 0.41 0.39 0.45 0.56 0.30 0.29 0.44 1.08 0.77 0.55 0.41 0.19 0.22 0.03 0.26 0.13 0.03 0.05 0.02 0.08 0.09 0.06 0.00 0.00 0.00 0.00 0.00 0.00 0.00 0.00 0.00 0.00 0.00 0.00 0.00 0.00 0.01 0.00 0.00 0.00 0.00 0.00 0.00 0.00 0.00 0.00 0.00 0.00 0.00 0.00 0.00 0.00 0.01 0.00 0.01 0.01 0.01 0.05 0.04 0.14 0.01 0.03 0.01 0.02 0.06 0.11 0.21 0.08 0.12 0.07 0.06 0.08 0.13 0.14 0.09 0.20 0.19 0.33 0.53 0.61 0.92
0.17 0.11 0.16 0.35 0.38 0.55 0.36 0.42 0.29 0.16 0.21 0.25 0.32 0.54 1.11 0.65 0.24 0.45 0.13 0.13 0.32 0.72 0.60 0.21 0.11 0.20 0.05 0.12 0.04 0.00 0.03 0.00 0.00 0.00 0.01 0.00 0.01 0.00 0.00 0.01 0.00 0.00 0.03 0.00 0.02 0.00 0.00 0.00 0.00 0.00 0.00 0.00 0.00 0.00 0.00 0.00 0.00 0.00 0.00 0.01 0.12 0.16 0.02 0.12 0.08 0.06 0.04 0.03 0.11 0.01 0.03 0.06 0.01 0.25 0.13 0.12 0.06 0.06 0.09 0.10 0.13 0.11 0.14 0.16 0.23 0.25 0.44 0.60
0.15 0.13 0.22 0.37 0.38 0.48 0.37 0.32 0.26 0.31 0.32 0.25 0.46 0.78 0.72 0.54 0.20 0.08 0.24 0.33 0.99 0.53 0.41 0.42 0.21 0.13 0.14 0.12 0.03 0.00 0.00 0.04 0.01 0.00 0.00 0.00 0.01 0.00 0.00 0.00 0.00 0.00 0.05 0.06 0.02 0.00 0.00 0.00 0.00 0.00 0.00 0.00 0.00 0.00 0.02 0.01 0.00 0.00 0.01 0.09 0.08 0.14 0.06 0.02 0.09 0.04 0.09 0.04 0.07 0.10 0.05 0.04 0.27 0.39 0.18 0.13 0.16 0.11 0.23 0.25 0.15 0.12 0.15 0.26 0.29 0.44 0.49 0.64
0.21 0.18 0.44 0.23 0.37 0.27 0.35 0.31 0.24 0.28 0.57 0.40 0.74 0.67 1.07 0.35 0.24 0.33 0.34 0.34 1.07 0.38 0.29 0.32 0.35 0.21 0.07 0.16 0.03 0.00 0.01 0.00 0.01 0.03 0.00 0.01 0.00 0.04 0.03 0.00 0.00 0.01 0.00 0.01 0.00 0.03 0.02 0.05 0.01 0.00 0.02 0.00 0.00 0.00 0.00 0.03 0.02 0.01 0.00 0.01 0.13 0.11 0.09 0.02 0.08 0.05 0.02 0.16 0.11 0.02 0.02 0.08 0.14 0.89 0.24 0.17 0.20 0.15 0.09 0.11 0.13 0.16 0.18 0.26 0.38 0.33 0.62 1.36
0.25 0.36 0.25 0.28 0.35 0.32 0.27 0.30 0.25 0.36 0.43 0.59 0.57 0.73 0.50 0.19 0.31 0.51 0.47 0.31 0.45 0.37 0.42 0.14 0.51 0.15 0.10 0.02 0.09 0.01 0.00 0.14 0.00 0.00 0.02 0.00 0.07 0.02 0.02 0.02 0.00 0.00 0.00 0.02 0.06 0.01 0.00 0.04 0.07 0.00 0.01 0.00 0.00 0.00 0.00 0.00 0.00 0.01 0.01 0.00 0.06 0.04 0.02 0.12 0.34 0.04 0.08 0.08 0.03 0.07 0.07 0.24 0.73 0.75 0.31 0.22 0.23 0.26 0.20 0.13 0.10 0.23 0.30 0.26 0.41 0.54 0.97 0.57
0.37 0.39 0.34 0.52 0.59 0.30 0.23 0.31 0.19 0.27 0.39 0.46 0.58 0.41 0.38 0.33 0.51 0.61 0.63 0.66 0.42 0.42 0.25 0.15 0.26 0.22 0.11 0.09 0.01 0.02 0.03 0.06 0.03 0.03 0.04 0.00 0.00 0.02 0.00 0.00 0.00 0.00 0.07 0.00 0.16 0.05 0.01 0.09 0.01 0.00 0.00 0.00 0.00 0.00 0.00 0.00 0.21 0.25 0.00 0.07 0.06 0.02 0.02 0.04 0.00 0.01 0.00 0.00 0.02 0.01 0.17 0.16 0.13 0.62 0.35 0.22 0.10 0.18 0.24 0.22 0.22 0.32 0.31 0.25 0.51 0.49 0.56 0.90
0.47 0.33 0.62 0.44 0.43 0.22 0.24 0.26 0.25 0.37 0.47 0.47 0.47 0.31 0.16 0.26 0.21 0.36 0.50 0.75 0.50 0.40 0.39 0.44 0.33 0.47 0.15 0.11 0.07 0.01 0.08 0.01 0.17 0.01 0.18 0.01 0.06 0.00 0.00 0.01 0.00 0.01 0.00 0.00 0.07 0.01 0.18 0.26 0.01 0.00 0.01 0.00 0.00 0.00 0.00 0.01 0.00 0.03 0.02 0.04 0.00 0.00 0.01 0.02 0.12 0.09 0.08 0.03 0.07 0.01 0.04 0.27 0.06 0.61 0.55 0.33 0.33 0.26 0.35 0.42 0.45 0.43 0.49 0.81 1.09 1.20 1.33 1.07
0.35 0.51 0.54 0.63 0.27 0.15 0.26 0.44 0.24 0.29 0.36 0.45 0.35 0.20 0.06 0.31 0.37 0.41 0.49 0.58 0.43 0.39 0.37 0.71 0.60 0.30 0.10 0.11 0.06 0.03 0.15 0.05 0.34 0.06 0.16 0.02 0.31 0.00 0.02 0.04 0.01 0.00 0.00 0.01 0.01 0.06 0.00 0.12 0.06 0.01 0.00 0.00 0.00 0.00 0.00 0.00 0.00 0.01 0.05 0.04 0.02 0.09 0.10 0.06 0.00 0.02 0.02 0.01 0.13 0.02 0.12 0.09 0.13 0.67 0.47 0.37 0.21 0.32 0.39 0.44 0.41 0.39 0.59 0.47 0.49 1.19 0.64 0.87
0.28 0.41 0.57 0.32 0.18 0.14 0.22 0.29 0.16 0.46 0.56 0.53 0.33 0.48 0.45 0.23 0.25 0.45 0.51 0.48 0.28 0.36 0.43 0.55 0.59 0.42 0.51 0.11 0.14 0.03 0.09 0.16 0.17 0.21 0.21 0.19 0.15 0.22 0.11 0.00 0.09 0.00 0.00 0.00 0.02 0.02 0.00 0.03 0.05 0.00 0.00 0.03 0.00 0.00 0.02 0.06 0.01 0.00 0.00 0.00 0.00 0.01 0.03 0.15 0.11 0.28 0.03 0.27 0.03 0.13 0.11 0.31 0.15 0.40 0.07 0.15 0.08 0.21 0.35 0.41 0.39 0.33 0.36 0.51 0.43 0.70 0.65 0.51
0.49 0.37 0.66 0.15 0.06 0.09 0.25 0.29 0.36 0.51 0.64 0.35 0.17 0.30 0.25 0.28 0.27 0.36 0.41 0.36 0.50 0.37 0.55 0.31 0.21 0.39 0.27 0.12 0.19 0.12 0.07 0.03 0.12 0.23 0.12 0.41 0.10 0.09 0.09 0.00 0.07 0.02 0.00 0.00 0.01 0.01 0.05 0.01 0.15 0.09 0.00 0.00 0.12 0.00 0.03 0.01 0.09 0.04 0.01 0.01 0.03 0.02 0.02 0.02 0.13 0.06 0.16 0.20 0.11 0.16 0.20 0.38 0.46 0.18 0.18 0.22 0.19 0.37 0.57 0.61 0.63 0.39 0.35 0.35 0.37 0.63 0.46 0.45
0.18 0.87 0.77 0.17 0.11 0.09 0.20 0.43 0.53 0.51 0.32 0.17 0.23 0.51 0.18 0.30 0.32 0.26 0.20 0.27 0.24 0.16 0.19 0.25 0.30 0.30 0.23 0.08 0.05 0.22 0.08 0.02 0.06 0.22 0.18 0.16 0.15 0.42 0.00 0.08 0.00 0.05 0.00 0.01 0.01 0.17 0.02 0.00 0.02 0.07 0.02 0.02 0.02 0.01 0.01 0.01 0.03 0.06 0.07 0.13 0.11 0.11 0.17 0.31 0.30 0.01 0.09 0.11 0.15 0.19 0.25 0.44 0.26 0.13 0.25 0.26 0.16 0.18 0.26 0.47 0.76 0.60 0.32 0.25 0.39 1.33 1.35 1.15
0.50 0.97 1.47 0.41 0.18 0.23 0.28 0.70 0.46 0.35 0.27 0.27 0.34 0.16 0.28 0.27 0.39 0.26 0.23 0.30 0.14 0.24 0.19 0.15 0.08 0.09 0.06 0.06 0.11 0.12 0.08 0.03 0.11 0.13 0.06 0.33 0.28 0.14 0.14 0.00 0.01 0.03 0.06 0.07 0.07 0.15 0.04 0.06 0.07 0.02 0.10 0.18 0.02 0.03 0.00 0.01 0.00 0.03 0.01 0.11 0.02 0.09 0.10 0.17 0.24 0.25 0.13 0.09 0.08 0.20 0.20 0.48 0.29 0.21 0.45 0.74 0.37 0.29 0.41 0.25 0.27 0.34 0.35 0.72 1.12 1.01 1.21 1.26
0.50 1.31 1.40 0.52 0.30 0.31 0.67 0.53 0.22 0.31 0.32 0.14 0.10 0.16 0.24 0.47 0.28 0.18 0.17 0.39 0.23 0.22 0.23 0.22 0.12 0.10 0.05 0.17 0.04 0.13 0.07 0.05 0.03 0.12 0.23 0.16 0.34 0.16 0.04 0.02 0.03 0.06 0.00 0.09 0.02 0.06 0.00 0.01 0.01 0.02 0.10 0.05 0.01 0.00 0.00 0.00 0.00 0.00 0.00 0.00 0.01 0.11 0.09 0.15 0.27 0.31 0.28 0.21 0.09 0.10 0.16 0.78 0.24 0.27 0.77 1.21 0.67 0.47 0.31 0.37 0.24 0.19 0.17 0.48 0.50 0.33 0.26 0.76
0.83 1.87 1.45 0.61 0.43 0.47 0.75 0.49 0.34 0.23 0.28 0.17 0.25 0.24 0.19 0.29 0.23 0.23 0.24 0.23 0.20 0.20 0.49 0.45 0.30 0.05 0.14 0.14 0.06 0.07 0.08 0.04 0.01 0.02 0.04 0.07 0.27 0.06 0.02 0.03 0.01 0.10 0.02 0.41 0.16 0.16 0.28 0.12 0.03 0.12 0.07 0.15 0.19 0.02 0.01 0.00 0.00 0.04 0.04 0.05 0.03 0.01 0.02 0.09 0.10 0.13 0.13 0.17 0.21 0.23 0.31 0.45 0.76 0.65 0.64 0.92 0.54 0.25 0.60 0.50 0.38 0.57 0.46 0.62 0.29 0.96 0.88 0.77
1.77 1.47 1.15 1.09 0.38 0.65 1.11 0.76 0.87 0.37 0.37 0.40 0.29 0.31 0.35 0.32 0.30 0.27 0.30 0.44 0.20 0.08 0.17 0.19 0.27 0.14 0.05 0.04 0.08 0.10 0.01 0.05 0.09 0.01 0.01 0.21 0.35 0.00 0.00 0.02 0.01 0.11 0.14 0.08 0.04 0.09 0.19 0.04 0.02 0.14 0.24 0.19 0.29 0.35 0.19 0.16 0.16 0.03 0.01 0.03 0.01 0.02 0.14 0.12 0.05 0.13 0.07 0.06 0.06 0.19 0.73 0.58 0.61 0.55 0.65 0.52 0.47 0.49 0.70 0.95 0.50 0.53 0.78 0.54 0.55 0.42 0.30 1.27
1.55 1.18 1.22 1.23 1.18 1.04 0.90 0.74 0.89 0.85 0.62 0.59 0.43 0.36 0.49 0.74 0.55 0.49 0.26 0.19 0.08 0.05 0.15 0.21 0.02 0.03 0.04 0.03 0.08 0.04 0.04 0.01 0.03 0.15 0.03 0.16 0.19 0.04 0.00 0.01 0.05 0.05 0.03 0.01 0.10 0.14 0.21 0.09 0.13 0.18 0.23 0.35 0.26 0.27 0.15 0.03 0.08 0.06 0.04 0.05 0.06 0.01 0.06 0.09 0.18 0.08 0.15 0.13 0.08 0.15 0.14 0.62 0.74 0.78 0.68 0.38 0.46 0.39 0.58 0.72 0.56 0.56 0.68 0.78 0.66 0.38 0.46 0.63
1.34 1.25 0.55 0.64 0.57 0.97 1.09 1.06 0.97 0.98 1.21 0.93 0.91 0.62 0.87 0.89 0.60 0.45 0.21 0.29 0.03 0.25 0.02 0.11 0.22 0.13 0.05 0.03 0.14 0.09 0.11 0.06 0.03 0.01 0.04 0.13 0.24 0.19 0.04 0.16 0.06 0.01 0.02 0.03 0.03 0.09 0.85 0.28 0.19 0.21 0.08 0.11 0.15 0.28 0.27 0.07 0.13 0.08 0.20 0.06 0.02 0.02 0.05 0.19 0.04 0.21 0.10 0.16 0.28 0.32 0.20 0.17 0.47 0.44 0.37 0.41 0.76 0.75 0.58 0.47 0.58 0.68 0.79 1.06 0.57 0.57 0.61 0.59
1.53 1.22 0.87 0.51 1.01 0.92 1.50 1.66 1.46 1.59 1.15 1.27 1.13 0.86 0.84 0.66 0.50 0.60 0.46 0.09 0.37 0.07 0.28 0.07 0.26 0.17 0.09 0.10 0.11 0.15 0.21 0.15 0.06 0.02 0.14 0.15 0.12 0.25 0.27 0.22 0.37 0.15 0.06 0.09 0.06 0.11 0.33 0.21 0.67 0.21 0.24 0.15 0.07 0.13 0.13 0.16 0.14 0.13 0.09 0.14 0.08 0.06 0.09 0.10 0.02 0.04 0.08 0.09 0.22 0.62 0.49 0.25 0.33 0.28 0.30 0.20 0.21 0.29 0.40 0.81 0.34 0.49 1.09 1.02 0.49 0.34 0.45 0.48
1.62 0.93 1.31 0.46 1.06 0.81 0.99 1.36 1.71 2.07 1.64 1.14 1.28 0.85 0.89 0.59 0.58 0.55 0.50 0.88 0.93 0.24 0.11 0.28 0.41 0.22 0.20 0.06 0.26 0.29 0.16 0.20 0.09 0.06 0.15 0.38 0.16 0.32 0.41 0.32 0.23 0.16 0.17 0.24 0.10 0.03 0.10 0.26 0.33 0.45 0.69 0.49 0.17 0.20 0.24 0.11 0.24 0.11 0.06 0.16 0.11 0.09 0.14 0.13 0.18 0.12 0.13 0.18 0.18 0.14 0.32 0.26 0.36 0.32 0.25 0.21 0.09 0.25 0.19 0.36 0.45 0.52 0.57 0.44 0.50 0.60 0.49 0.48
1.63 1.41 1.39 0.39 0.73 0.67 0.82 1.06 1.81 2.18 2.31 1.30 1.36 0.86 0.94 0.70 0.63 0.96 0.64 0.75 0.45 0.25 0.30 0.83 0.28 0.44 0.52 0.17 0.28 0.20 0.22 0.24 0.18 0.14 0.34 0.21 0.28 0.26 0.45 0.36 0.56 0.23 0.24 0.57 0.39 0.30 0.11 1.12 0.13 0.41 0.51 0.61 0.56 0.33 0.33 0.23 0.23 0.31 0.11 0.16 0.13 0.16 0.12 0.07 0.08 0.18 0.28 0.26 0.28 0.06 0.19 0.32 0.54 0.27 0.26 0.22 0.13 0.08 0.08 0.16 0.17 0.36 0.62 0.41 0.54 0.49 0.53 0.55
1.46 1.40 1.32 1.10 0.56 0.72 1.01 0.80 1.29 1.77 2.28 2.23 1.71 1.01 1.15 0.90 1.00 0.90 0.54 0.91 0.70 0.67 0.35 0.24 0.26 0.25 0.32 0.40 0.20 0.31 0.20 0.21 0.09 0.10 0.16 0.09 0.17 0.24 0.18 0.38 0.04 0.32 0.15 0.30 0.20 0.56 0.07 0.66 0.35 0.72 0.42 0.65 0.30 0.38 0.35 0.30 0.30 0.28 0.19 0.12 0.16 0.28 0.32 0.20 0.18 0.21 0.11 0.39 0.46 0.22 0.25 0.25 0.74 0.36 0.31 0.27 0.21 0.09 0.09 0.10 0.21 0.47 0.39 0.39 0.62 0.37 0.34 0.42
1.07 1.25 0.97 0.95 0.51 0.26 0.55 0.41 0.45 0.94 1.85 2.33 2.54 1.54 1.22 0.70 0.59 0.55 0.32 0.19 0.43 0.33 0.16 0.13 0.17 0.18 0.35 0.42 0.45 0.21 0.12 0.15 0.07 0.15 0.13 0.11 0.09 0.41 0.09 0.15 0.10 0.15 0.29 0.20 0.12 0.27 0.39 0.27 0.25 0.59 0.54 0.55 0.64 0.35 0.51 0.68 0.72 0.67 0.58 0.12 0.09 0.08 0.19 0.32 0.13 0.09 0.18 0.09 0.43 0.50 0.39 0.13 0.27 0.23 0.25 0.43 0.43 0.76 0.63 0.20 0.19 0.15 0.28 0.36 0.27 0.31 0.44 0.53